Cortez, CO

12:39 AM MDT on September 22, 2019 (GMT -0600)
Cortez Municipal

Weather History for KCEZ - August, 2019

Change the Weather History Date:

Monday, August 19, 2019

  Actual Average Record
Temperature  
Mean Temperature 69 °F 69 °F  
Max Temperature 93 °F 85 °F 95 °F (2002)
Min Temperature 45 °F 53 °F 43 °F (2008)
Degree Days  
Heating Degree Days 0 0  
Month to date heating degree days 0 0  
Since 1 June heating degree days 66 78  
Since 1 July heating degree days 0 3  
Cooling Degree Days 4 4  
Month to date cooling degree days 123 110  
Year to date cooling degree days 410 374  
Since 1 June cooling degree days 410 369  
Growing Degree Days 18 (Base 50)    
Moisture  
Dew Point 33 °F    
Average Humidity 38    
Maximum Humidity 65    
Minimum Humidity 10    
Precipitation  
Precipitation 0.00 in 0.04 in 0.11 in (1999)
Month to date precipitation 0.63 0.95  
Year to date precipitation 9.78 7.86  
Sea Level Pressure  
Sea Level Pressure 29.97 in    
Wind  
Wind Speed 7 mph (NE)    
Max Wind Speed 17 mph    
Max Gust Speed 26 mph    
Visibility 10 miles    
Events      
T = Trace of Precipitation, MM = Missing Value Source: NWS Daily Summary

Daily Weather History Graph

Daily Weather History Graph

Search for Another Location

Airport or City:

Astronomy

Aug. 19, 2019 Rise Set
Actual Time 6:34 AM MDT 8:01 PM MDT
Civil Twilight 6:06 AM MDT 8:29 PM MDT
Nautical Twilight 5:33 AM MDT 9:01 PM MDT
Astronomical Twilight 4:58 AM MDT 9:36 PM MDT
Moon 10:29 PM MDT (8/19) 10:14 AM MDT (8/19)
Length of Visible Light 14h 22m
Length of Day
13h 27m
Waning Gibbous, 85% of the Moon is Illuminated
Aug 19
Waning Gibbous
Aug 23
Last Quarter
Aug 30
New
Sep 5
First Quarter
Sep 13
Full

Hourly Weather History & Observations

Time (MDT) Temp. Windchill Dew Point Humidity Pressure Visibility Wind Dir Wind Speed Gust Speed Precip Events Conditions
12:53 AM 55.0 °F - 35.1 °F 47% 29.93 in 10.0 mi East 5.8 mph - N/A   Clear
1:53 AM 53.1 °F - 35.1 °F 50% 29.94 in 10.0 mi Calm Calm - N/A   Clear
2:53 AM 50.0 °F - 34.0 °F 54% 29.94 in 10.0 mi ENE 5.8 mph - N/A   Clear
3:53 AM 48.9 °F - 33.1 °F 54% 29.95 in 10.0 mi East 6.9 mph - N/A   Clear
4:53 AM 48.0 °F - 33.1 °F 56% 29.96 in 10.0 mi ENE 5.8 mph - N/A   Clear
5:53 AM 46.0 °F 41.9 °F 35.1 °F 66% 29.99 in 10.0 mi ESE 8.1 mph - N/A   Clear
6:53 AM 48.0 °F - 32.0 °F 54% 30.01 in 10.0 mi NE 5.8 mph - N/A   Clear
7:53 AM 55.9 °F - 32.0 °F 40% 30.04 in 10.0 mi ENE 5.8 mph - N/A   Clear
8:53 AM 66.0 °F - 37.0 °F 34% 30.04 in 10.0 mi Calm Calm - N/A   Clear
9:53 AM 75.0 °F - 37.0 °F 25% 30.03 in 10.0 mi Calm Calm - N/A   Clear
10:53 AM 82.0 °F - 34.0 °F 18% 30.02 in 10.0 mi Calm Calm - N/A   Clear
11:53 AM 84.9 °F - 32.0 °F 15% 30.00 in 10.0 mi Calm Calm - N/A   Clear
12:53 PM 90.0 °F - 34.0 °F 14% 29.98 in 10.0 mi SSW 11.5 mph - N/A   Clear
1:53 PM 91.0 °F - 33.1 °F 13% 29.97 in 10.0 mi South 15.0 mph 20.7 mph N/A   Clear
2:53 PM 91.0 °F - 30.0 °F 11% 29.96 in 10.0 mi West 9.2 mph 18.4 mph N/A   Clear
3:53 PM 91.9 °F - 30.0 °F 11% 29.95 in 10.0 mi WNW 16.1 mph 24.2 mph N/A   Clear
4:53 PM 91.0 °F - 28.9 °F 11% 29.94 in 10.0 mi West 16.1 mph 24.2 mph N/A   Clear
5:53 PM 90.0 °F - 27.0 °F 10% 29.95 in 10.0 mi WNW 9.2 mph - N/A   Clear
6:53 PM 88.0 °F - 27.0 °F 11% 29.93 in 10.0 mi West 6.9 mph - N/A   Clear
7:53 PM 81.0 °F - 30.0 °F 16% 29.93 in 10.0 mi West 4.6 mph - N/A   Clear
8:53 PM 66.0 °F - 37.9 °F 36% 29.96 in 10.0 mi ENE 6.9 mph - N/A   Clear
9:53 PM 62.1 °F - 34.0 °F 35% 29.96 in 10.0 mi ENE 8.1 mph - N/A   Clear
10:53 PM 62.1 °F - 34.0 °F 35% 29.95 in 10.0 mi NNE 6.9 mph - N/A   Clear
11:53 PM 54.0 °F - 36.0 °F 51% 29.97 in 10.0 mi East 4.6 mph - N/A   Clear